DELTA 1 DEB, 10874

Orbit data source: Space-Track

DELTA 1 DEB, 10874 is space debris in SSO originally from a launch on Thu, 29 Jul 1976 UTC launched from the Air Force Western Test Range (AFWTR). Debris objects in space refer to the collection of defunct objects orbiting the Earth. Examples of debris include non-operational satellites, rocket bodies, and fragments generated from explosions, collisions, or faulty payload assembly.

Loading next visibility...
Identifier
10874, 1976-077DC
Orbit
SSO
Country
Flag of USUS
Related business
Manufacturer
Unknown
Mission
Spacecraft
Bus & Motor
Unknown
Mass
Unknown
Launch date (UTC)
1976-07-29 (50 years ago)
Launch vehicle
Unknown
Launch site
Air Force Western Test Range (AFWTR)
Object type
Payload
Rocket body
Debris
Shape & HBR
Unknown shape, 0.1 m
Radar Cross Section
Small (<0.1 m²)

Expand to show TLE details & history
Last TLE update: 1 day ago

TLE from 1 day ago
0 DELTA 1 DEB
1 10874U 76077DC  26032.97698571  .00000723  00000-0  19886-2 0  9998
2 10874 102.0110 180.0761 0094213 202.0130 285.4142 13.16629827319674
Epoch: 2026-02-01T23:26Z
TLE epoch observation values (Epoch: 2026-02-01T23:26:51.565Z)
Latitude
52.04545°
Longitude
-108.07131°
Altitude
1,187.503 km
Speed
7.274 km/s
True Right ascension
01h 03m 17s
True Declination
51° 53' 17"
Sunlit
Object was in daylight at epoch
Visualization orbit readout
Latitude
Unknown
Longitude
Unknown
Altitude
Unknown
Speed
Unknown
Apparent Right ascension
Unknown
Apparent Declination
Unknown
Sunlit
N/A
Visualization observer readout
Local Sidereal Time
05:47:32
Azimuth
Unknown
Elevation
Unknown
Doppler factor
Unknown
Orbital elements
Apogee altitude
1,266.446 km
Perigee altitude
1,123.746 km
Semi-major axis
7,573.233 km
Eccentricity
0.00942
Inclination
102.011°
RAAN
180.0761°
Arg. of periapsis
202.013°
True anomaly
284.37022°
Mean anomaly
285.4142°
Eccentric anomaly
284.89253°
Mean motion
3.29322 °/min
Orbital period
109.32 mins
BSTAR
0.0019886
Loading maneuver chart data...
Computing Atmospheric mass density...
Loading historical data...
Loading historical data...
Loading historical data...
Loading historical data...
Loading historical data...
Loading historical data...
Loading historical data...

Documentation

Showing up to 5 results
|